TDRS 5

Last updated on Thu Jul 03 2025 00:02:38 GMT+0000 (Coordinated Universal Time)

1 21639U 91054B 25183.44421189 .00000084 00000+0 00000+0 0 9992 2 21639 14.1129 356.3511 0009726 247.0969 29.8188 1.00281947124203
UTC large
Height (km)
Speed (km/s)
/
Latitude / Longitude
Inclination (degrees)
Orbital Period (minutes)
Azimuth
Elevation
Range (km)
Doppler Factor

Next 0 passes for location: London (51.5072 / 0.1276)

Sorry there are no passes over London.